| time (UTC) | temp F | wind direction | speed knots | gust knots | rain 1hr in | rain 24hr in | rain mn in | humidity % | barometer mb |
| 20260905150502 | 75 | 330 | 22.6 | 33.0 | 0.00 | 0.00 | 0.00 | 47 | 1013.0 |
| 20260905143502 | 77 | 330 | 26.9 | 0.0 | 0.00 | 0.00 | 0.00 | 42 | 1012.0 |
| 20260905140502 | 90 | 300 | 9.6 | 0.0 | 0.00 | 0.00 | 0.00 | 29 | 1012.0 |
| 20260905133502 | 91 | 250 | 5.2 | 0.0 | 0.00 | 0.00 | 0.00 | 28 | 1011.0 |
| 20260905130502 | 91 | 270 | 6.1 | 0.0 | 0.00 | 0.00 | 0.00 | 28 | 1011.0 |
| 20260905123502 | 90 | 6.1 | 0.0 | 0.00 | 0.00 | 0.00 | 27 | 1012.0 | |
| 20260905120502 | 91 | 260 | 6.1 | 0.0 | 0.00 | 0.00 | 0.00 | 28 | 1012.0 |
| 20260905113503 | 90 | 210 | 7.0 | 0.0 | 0.00 | 0.00 | 0.00 | 29 | 1012.0 |
| 20260905110502 | 88 | 190 | 6.1 | 0.0 | 0.00 | 0.00 | 0.00 | 31 | 1012.0 |
| 20260905103503 | 88 | 190 | 5.2 | 0.0 | 0.00 | 0.00 | 0.00 | 31 | 1013.0 |
| 20260905100502 | 88 | 200 | 7.0 | 0.0 | 0.00 | 0.00 | 0.00 | 31 | 1013.0 |
| 20260905093502 | 88 | 220 | 7.0 | 0.0 | 0.00 | 0.00 | 0.00 | 33 | 1013.0 |
| 20260905090503 | 86 | 210 | 7.0 | 0.0 | 0.00 | 0.00 | 0.00 | 33 | 1013.0 |
| 20260905083503 | 84 | 240 | 7.0 | 0.0 | 0.00 | 0.00 | 0.00 | 35 | 1013.0 |
| 20260905080502 | 82 | 240 | 6.1 | 0.0 | 0.00 | 0.00 | 0.00 | 37 | 1014.0 |
| 20260905073502 | 81 | 190 | 5.2 | 0.0 | 0.00 | 0.00 | 0.00 | 42 | 1014.0 |
| 20260905070503 | 79 | 190 | 5.2 | 0.0 | 0.00 | 0.00 | 0.00 | 45 | 1014.0 |
| 20260905063502 | 75 | 210 | 6.1 | 0.0 | 0.00 | 0.00 | 0.00 | 47 | 1014.0 |
| 20260905060503 | 72 | 210 | 5.2 | 0.0 | 0.00 | 0.00 | 0.00 | 53 | 1014.0 |
| 20260905053502 | 70 | 200 | 5.2 | 0.0 | 0.00 | 0.00 | 0.00 | 57 | 1014.0 |
| 20260905050502 | 66 | 1.7 | 0.0 | 0.00 | 0.00 | 0.00 | 64 | 1014.0 | |
| 20260905043502 | 64 | 210 | 2.6 | 0.0 | 0.00 | 0.00 | 0.00 | 64 | 1014.0 |
| 20260905040502 | 64 | 230 | 5.2 | 0.0 | 0.00 | 0.00 | 0.00 | 64 | 1014.0 |
| 20260905033502 | 64 | 230 | 5.2 | 0.0 | 0.00 | 0.00 | 0.00 | 64 | 1014.0 |
| 20260905030502 | 66 | 220 | 4.3 | 0.0 | 0.00 | 0.00 | 0.00 | 56 | 1014.0 |
| 20260905023502 | 66 | 250 | 5.2 | 0.0 | 0.00 | 0.00 | 0.00 | 60 | 1014.0 |
| 20260905020502 | 66 | 1.7 | 0.0 | 0.00 | 0.00 | 0.00 | 60 | 1014.0 | |
| 20260905013502 | 66 | 210 | 2.6 | 0.0 | 0.00 | 0.00 | 0.00 | 60 | 1014.0 |
| 20260905010502 | 66 | 240 | 2.6 | 0.0 | 0.00 | 0.00 | 0.00 | ||
| 20260905003502 | 66 | 220 | 1.7 | 0.0 | 0.00 | 0.00 | 0.00 | 60 | 1014.0 |
| 20260905000501 | 66 | 0.9 | 0.0 | 0.00 | 0.00 | 0.00 | 64 | 1014.0 | |
| 20260904233503 | 68 | 220 | 2.6 | 0.0 | 0.00 | 0.00 | 0.00 | 60 | 1014.0 |
| 20260904230503 | 68 | 0.9 | 0.0 | 0.00 | 0.00 | 0.00 | 64 | 1014.0 | |
| 20260904223502 | 68 | 0.9 | 0.0 | 0.00 | 0.00 | 0.00 | 64 | 1014.0 | |
| 20260904220502 | 68 | 0 | 0.0 | 0.0 | 0.00 | 0.00 | 0.00 | 64 | 1014.0 |
| 20260904213502 | 68 | 0 | 0.0 | 0.0 | 0.00 | 0.00 | 0.00 | 64 | 1015.0 |
| 20260904210503 | 68 | 0 | 0.0 | 0.0 | 0.00 | 0.00 | 0.00 | 64 | 1014.0 |
| 20260904203502 | 70 | 240 | 1.7 | 0.0 | 0.00 | 0.00 | 0.00 | 60 | 1014.0 |
| 20260904200502 | 72 | 230 | 0.9 | 0.0 | 0.00 | 0.00 | 0.00 | 57 | 1014.0 |
| 20260904193502 | 72 | 240 | 1.7 | 0.0 | 0.00 | 0.00 | 0.00 | 53 | 1014.0 |
| 20260904190502 | 73 | 210 | 2.6 | 0.0 | 0.00 | 0.00 | 0.00 | 50 | 1015.0 |
| 20260904183502 | 73 | 220 | 1.7 | 0.0 | 0.00 | 0.00 | 0.00 | 50 | 1015.0 |
| 20260904180502 | 75 | 0 | 0.0 | 0.0 | 0.00 | 0.00 | 0.00 | 47 | 1015.0 |
| 20260904173503 | 75 | 150 | 0.9 | 0.0 | 0.00 | 0.00 | 0.00 | 47 | 1014.0 |
| 20260904170503 | 77 | 320 | 0.9 | 0.0 | 0.00 | 0.00 | 0.00 | 42 | 1014.0 |
| 20260904163502 | 77 | 330 | 4.3 | 0.0 | 0.00 | 0.00 | 0.00 | 44 | 1014.0 |
| 20260904160502 | 77 | 330 | 7.0 | 0.0 | 0.00 | 0.00 | 0.00 | 44 | 1014.0 |
| 20260904153502 | 79 | 300 | 2.6 | 0.0 | 0.00 | 0.00 | 0.00 | 39 | 1014.0 |